User: anonymous   Login
Location: Caltech
(34.1382°N, 118.1253°W)
Time: 02:43:48
(UTC-07:00)
Language:

HST - Orbit

View from above orbital plane
View from above orbital plane
View from above satellite
View from above satellite

Ground track
Ground track

The orbit data is extracted from the following two-line orbital elements,

1 20580U 90037B   14304.45127315  .00004027  00000-0  25745-3 0  1478
2 20580 028.4697 221.0440 0003001 307.4317 021.0499 15.06057334145273
Epoch (UTC): 31 October 2014 10:49:50
Eccentricity: 0.0003001
inclination: 28.4697°
perigee height: 546 km
apogee height: 550 km
right ascension of ascending node: 221.0440°
argument of perigee: 307.4317°
revolutions per day: 15.06057334
mean anomaly at epoch: 21.0499°
orbit number at epoch: 14527

The dashed part of the orbit path shows where the satellite is in the earth's shadow,  

DLR